DLH8CF EDDM-LKPR

Flight info

Callsign DLH8CF
Flight time 0h 39m
Altitude 25000
Route AKINI1S AKINI Y104 MAMOR L132 AGNAV DCT LOMKI
Aircraft A20N/M-SDE2E3FGHIRWXY/LB1

Departure

Time 2026-05-06 17:07
Airport Munich Airport (EDDM)

Arrival

Time 2026-05-06 17:46
Airport Václav Havel Airport Prague (LKPR)
Time Latitude Longitude Altitude Speed Heading
2026-05-06 16:36 48.35526 11.79289 1466 ft 0 kts 263°
2026-05-06 16:54 48.35527 11.79311 1466 ft 2 kts 263°
2026-05-06 16:54 48.35530 11.79336 1465 ft 2 kts 263°
2026-05-06 16:54 48.35532 11.79360 1465 ft 2 kts 263°
2026-05-06 16:54 48.35531 11.79386 1465 ft 2 kts 285°
2026-05-06 16:55 48.35524 11.79411 1465 ft 2 kts 303°
2026-05-06 16:55 48.35513 11.79430 1465 ft 2 kts 321°
2026-05-06 16:55 48.35498 11.79443 1465 ft 2 kts 339°
2026-05-06 16:55 48.35487 11.79448 1465 ft 0 kts 352°
2026-05-06 16:56 48.35480 11.79449 1465 ft 0 kts 354°
2026-05-06 16:59 48.35487 11.79449 1465 ft 3 kts
2026-05-06 16:59 48.35544 11.79504 1465 ft 10 kts 45°
2026-05-06 16:59 48.35617 11.79560 1464 ft 12 kts 359°
2026-05-06 16:59 48.35708 11.79545 1465 ft 12 kts 353°
2026-05-06 17:00 48.35802 11.79529 1465 ft 13 kts 354°
2026-05-06 17:00 48.35899 11.79513 1464 ft 14 kts 353°
2026-05-06 17:00 48.36010 11.79494 1462 ft 16 kts 354°
2026-05-06 17:00 48.36131 11.79473 1460 ft 17 kts 353°
2026-05-06 17:01 48.36211 11.79505 1458 ft 12 kts 60°
2026-05-06 17:01 48.36228 11.79648 1456 ft 14 kts 83°
2026-05-06 17:01 48.36244 11.79846 1454 ft 20 kts 83°
2026-05-06 17:01 48.36262 11.80080 1452 ft 20 kts 83°
2026-05-06 17:02 48.36279 11.80318 1450 ft 21 kts 83°
2026-05-06 17:02 48.36297 11.80551 1449 ft 21 kts 84°
2026-05-06 17:02 48.36315 11.80789 1447 ft 21 kts 83°
2026-05-06 17:02 48.36335 11.81041 1446 ft 21 kts 83°
2026-05-06 17:03 48.36360 11.81197 1446 ft 11 kts 37°
2026-05-06 17:03 48.36430 11.81139 1446 ft 12 kts 297°
2026-05-06 17:03 48.36467 11.81017 1446 ft 8 kts 294°
2026-05-06 17:03 48.36469 11.81009 1446 ft 0 kts 292°
2026-05-06 17:04 48.36472 11.80999 1446 ft 0 kts 292°
2026-05-06 17:05 48.36472 11.80998 1446 ft 0 kts 292°
2026-05-06 17:05 48.36494 11.80920 1446 ft 13 kts 293°
2026-05-06 17:05 48.36530 11.80799 1446 ft 13 kts 297°
2026-05-06 17:05 48.36575 11.80689 1447 ft 10 kts 284°
2026-05-06 17:06 48.36574 11.80640 1448 ft 1 kts 264°
2026-05-06 17:06 48.36546 11.80276 1449 ft 74 kts 263°
2026-05-06 17:06 48.36443 11.78956 1459 ft 149 kts 265°
2026-05-06 17:06 48.36286 11.76926 1841 ft 179 kts 263°
2026-05-06 17:07 48.36103 11.74864 2847 ft 175 kts 265°
2026-05-06 17:07 48.35952 11.73018 3882 ft 166 kts 265°
2026-05-06 17:07 48.35803 11.71277 4613 ft 169 kts 265°
2026-05-06 17:07 48.35746 11.69470 5173 ft 180 kts 278°
2026-05-06 17:08 48.36181 11.67674 5767 ft 191 kts 301°
2026-05-06 17:08 48.37094 11.66210 6399 ft 191 kts 320°
2026-05-06 17:08 48.38408 11.65285 6747 ft 200 kts 340°
2026-05-06 17:08 48.39993 11.64749 6802 ft 225 kts 345°
2026-05-06 17:09 48.41813 11.64253 6779 ft 261 kts 352°
2026-05-06 17:09 48.43758 11.64820 7352 ft 285 kts 24°
2026-05-06 17:09 48.45522 11.66351 8170 ft 292 kts 31°
2026-05-06 17:09 48.47367 11.68112 9063 ft 298 kts 31°
2026-05-06 17:10 48.49287 11.69890 9930 ft 303 kts 31°
2026-05-06 17:10 48.51144 11.71548 10543 ft 315 kts 30°
2026-05-06 17:10 48.53098 11.73240 10966 ft 334 kts 29°
2026-05-06 17:10 48.55165 11.74997 11345 ft 352 kts 29°
2026-05-06 17:11 48.57326 11.76812 11741 ft 368 kts 28°
2026-05-06 17:11 48.59583 11.78699 12400 ft 375 kts 28°
2026-05-06 17:11 48.61860 11.80601 13173 ft 378 kts 28°
2026-05-06 17:11 48.64175 11.82533 13890 ft 383 kts 28°
2026-05-06 17:12 48.66513 11.84483 14581 ft 387 kts 28°
2026-05-06 17:12 48.68866 11.86448 15255 ft 392 kts 28°
2026-05-06 17:12 48.71257 11.88446 15922 ft 396 kts 28°
2026-05-06 17:12 48.73680 11.90473 16572 ft 400 kts 28°
2026-05-06 17:13 48.76113 11.92511 17199 ft 405 kts 28°
2026-05-06 17:13 48.78585 11.94584 17814 ft 409 kts 28°
2026-05-06 17:13 48.81063 11.96663 18412 ft 413 kts 28°
2026-05-06 17:13 48.83595 11.98788 18965 ft 418 kts 28°
2026-05-06 17:14 48.86122 12.00915 19556 ft 421 kts 28°
2026-05-06 17:14 48.88690 12.03075 20138 ft 425 kts 28°
2026-05-06 17:14 48.91283 12.05260 20748 ft 427 kts 28°
2026-05-06 17:14 48.94001 12.07554 21555 ft 425 kts 29°
2026-05-06 17:15 48.96608 12.09755 22346 ft 423 kts 29°
2026-05-06 17:15 48.99266 12.12004 23102 ft 422 kts 30°
2026-05-06 17:15 49.02010 12.14329 23676 ft 424 kts 29°
2026-05-06 17:15 49.04798 12.16695 23688 ft 426 kts 30°
2026-05-06 17:16 49.07579 12.19061 23695 ft 426 kts 30°
2026-05-06 17:16 49.10265 12.21347 23665 ft 427 kts 30°
2026-05-06 17:16 49.13032 12.23706 23483 ft 427 kts 30°
2026-05-06 17:16 49.15587 12.25887 23329 ft 426 kts 29°
2026-05-06 17:17 49.18177 12.28101 23178 ft 426 kts 29°
2026-05-06 17:17 49.20779 12.30326 23020 ft 427 kts 29°
2026-05-06 17:17 49.23352 12.32528 22871 ft 427 kts 29°
2026-05-06 17:17 49.25934 12.34743 22717 ft 428 kts 29°
2026-05-06 17:18 49.28516 12.36959 22570 ft 429 kts 29°
2026-05-06 17:18 49.31108 12.39187 22416 ft 428 kts 29°
2026-05-06 17:18 49.33712 12.41428 22254 ft 428 kts 29°
2026-05-06 17:18 49.36318 12.43673 22101 ft 429 kts 28°
2026-05-06 17:19 49.38924 12.45921 21940 ft 425 kts 29°
2026-05-06 17:19 49.41444 12.48097 21797 ft 414 kts 28°
2026-05-06 17:19 49.43960 12.50274 21746 ft 412 kts 29°
2026-05-06 17:19 49.46453 12.52432 21740 ft 413 kts 28°
2026-05-06 17:20 49.48930 12.54581 21745 ft 413 kts 28°
2026-05-06 17:20 49.51437 12.56758 21741 ft 412 kts 28°
2026-05-06 17:20 49.53905 12.58905 21743 ft 412 kts 30°
2026-05-06 17:20 49.56287 12.61375 21742 ft 412 kts 38°
2026-05-06 17:21 49.58406 12.64288 21735 ft 412 kts 46°
2026-05-06 17:21 49.60336 12.67622 21732 ft 411 kts 51°
2026-05-06 17:21 49.62165 12.71000 21741 ft 411 kts 51°
2026-05-06 17:21 49.63985 12.74388 21730 ft 411 kts 51°
2026-05-06 17:22 49.65806 12.77762 21728 ft 411 kts 51°
2026-05-06 17:22 49.67635 12.81134 21551 ft 412 kts 51°
2026-05-06 17:22 49.69475 12.84513 21299 ft 409 kts 51°
2026-05-06 17:22 49.71280 12.87827 21030 ft 407 kts 50°
2026-05-06 17:23 49.73112 12.91188 20777 ft 406 kts 50°
2026-05-06 17:23 49.74903 12.94479 20514 ft 403 kts 50°
2026-05-06 17:23 49.76720 12.97818 20256 ft 402 kts 50°
2026-05-06 17:23 49.78484 13.01067 20005 ft 400 kts 50°
2026-05-06 17:24 49.80268 13.04353 19739 ft 399 kts 50°
2026-05-06 17:24 49.82050 13.07642 19488 ft 397 kts 50°
2026-05-06 17:24 49.83820 13.10912 19237 ft 395 kts 50°
2026-05-06 17:24 49.85551 13.14117 18985 ft 393 kts 50°
2026-05-06 17:25 49.87313 13.17381 18726 ft 391 kts 50°
2026-05-06 17:25 49.89031 13.20575 18474 ft 390 kts 51°
2026-05-06 17:25 49.90409 13.24148 18209 ft 386 kts 71°
2026-05-06 17:25 49.90918 13.28245 17865 ft 381 kts 91°
2026-05-06 17:26 49.90786 13.32340 17469 ft 377 kts 97°
2026-05-06 17:26 49.90569 13.36371 17080 ft 375 kts 96°
2026-05-06 17:26 49.90361 13.40592 16659 ft 372 kts 96°
2026-05-06 17:26 49.90236 13.44565 16261 ft 372 kts 89°
2026-05-06 17:27 49.90671 13.48452 15864 ft 372 kts 72°
2026-05-06 17:27 49.91837 13.52053 15495 ft 372 kts 55°
2026-05-06 17:27 49.93391 13.55243 15128 ft 369 kts 51°
2026-05-06 17:27 49.94970 13.58305 14764 ft 367 kts 51°
2026-05-06 17:28 49.96556 13.61399 14394 ft 364 kts 51°
2026-05-06 17:28 49.98096 13.64451 14031 ft 361 kts 51°
2026-05-06 17:28 49.99640 13.67549 13659 ft 359 kts 52°
2026-05-06 17:28 50.01139 13.70578 13292 ft 357 kts 53°
2026-05-06 17:29 50.02632 13.73613 13031 ft 355 kts 53°
2026-05-06 17:29 50.04124 13.76649 12836 ft 354 kts 53°
2026-05-06 17:29 50.05616 13.79688 12731 ft 352 kts 53°
2026-05-06 17:29 50.06972 13.82831 12737 ft 352 kts 62°
2026-05-06 17:30 50.07946 13.86334 12723 ft 351 kts 73°
2026-05-06 17:30 50.08509 13.90019 12719 ft 350 kts 81°
2026-05-06 17:30 50.08919 13.93719 12741 ft 350 kts 82°
2026-05-06 17:30 50.09310 13.97452 12724 ft 350 kts 82°
2026-05-06 17:31 50.09705 14.01175 12702 ft 349 kts 82°
2026-05-06 17:31 50.10109 14.04881 12724 ft 350 kts 82°
2026-05-06 17:31 50.10526 14.08649 12735 ft 350 kts 82°
2026-05-06 17:31 50.10937 14.12338 12743 ft 350 kts 81°
2026-05-06 17:32 50.11355 14.16085 12747 ft 350 kts 82°
2026-05-06 17:32 50.11771 14.19818 12749 ft 350 kts 82°
2026-05-06 17:32 50.12188 14.23564 12751 ft 351 kts 82°
2026-05-06 17:32 50.12597 14.27261 12750 ft 351 kts 82°
2026-05-06 17:33 50.13015 14.31009 12750 ft 351 kts 80°
2026-05-06 17:33 50.13832 14.34564 12742 ft 354 kts 61°
2026-05-06 17:33 50.15160 14.37816 12751 ft 355 kts 56°
2026-05-06 17:33 50.16558 14.40928 12751 ft 354 kts 55°
2026-05-06 17:34 50.17994 14.44071 12750 ft 353 kts 54°
2026-05-06 17:34 50.19411 14.47165 12557 ft 348 kts 54°
2026-05-06 17:34 50.20806 14.50210 12042 ft 349 kts 54°
2026-05-06 17:34 50.22210 14.53276 11554 ft 348 kts 54°
2026-05-06 17:35 50.23617 14.56357 11101 ft 346 kts 54°
2026-05-06 17:35 50.24828 14.59500 10715 ft 341 kts 69°
2026-05-06 17:35 50.25270 14.63071 10340 ft 334 kts 92°
2026-05-06 17:36 50.23601 14.69446 9617 ft 314 kts 132°
2026-05-06 17:36 50.22199 14.71979 9250 ft 309 kts 135°
2026-05-06 17:36 50.20781 14.74425 9020 ft 300 kts 135°
2026-05-06 17:36 50.19266 14.76536 8796 ft 288 kts 153°
2026-05-06 17:37 50.17421 14.77416 8753 ft 274 kts 180°
2026-05-06 17:37 50.15535 14.77091 8756 ft 273 kts 193°
2026-05-06 17:37 50.13681 14.76427 8750 ft 274 kts 195°
2026-05-06 17:37 50.11839 14.75706 8761 ft 272 kts 195°
2026-05-06 17:38 50.10030 14.74988 8611 ft 263 kts 195°
2026-05-06 17:38 50.08282 14.74288 8458 ft 253 kts 195°
2026-05-06 17:38 50.06578 14.73605 8289 ft 245 kts 195°
2026-05-06 17:38 50.04966 14.72952 8098 ft 238 kts 195°
2026-05-06 17:39 50.03372 14.72299 7812 ft 237 kts 195°
2026-05-06 17:39 50.01776 14.71632 7466 ft 237 kts 195°
2026-05-06 17:39 50.00193 14.70960 7135 ft 237 kts 195°
2026-05-06 17:39 49.98638 14.70144 6783 ft 237 kts 210°
2026-05-06 17:40 49.97464 14.68382 6429 ft 240 kts 237°
2026-05-06 17:40 49.96693 14.66072 6090 ft 240 kts 244°
2026-05-06 17:40 49.96205 14.63612 5699 ft 244 kts 265°
2026-05-06 17:40 49.96241 14.60991 5390 ft 242 kts 274°
2026-05-06 17:41 49.96386 14.58433 5200 ft 235 kts 275°
2026-05-06 17:41 49.96550 14.55966 4979 ft 222 kts 280°
2026-05-06 17:41 49.96948 14.53698 4554 ft 218 kts 294°
2026-05-06 17:41 49.97648 14.51657 4135 ft 214 kts 306°
2026-05-06 17:42 49.98507 14.49855 3982 ft 199 kts 310°
2026-05-06 17:42 49.99330 14.48251 4004 ft 175 kts 311°
2026-05-06 17:42 50.00069 14.46788 4055 ft 173 kts 310°
2026-05-06 17:42 50.00789 14.45323 3890 ft 172 kts 310°
2026-05-06 17:43 50.01512 14.43826 3660 ft 171 kts 309°
2026-05-06 17:43 50.02209 14.42372 3437 ft 170 kts 310°
2026-05-06 17:43 50.02911 14.40902 3214 ft 168 kts 310°
2026-05-06 17:43 50.03607 14.39452 2993 ft 167 kts 310°
2026-05-06 17:44 50.04306 14.38007 2767 ft 166 kts 309°
2026-05-06 17:44 50.04984 14.36545 2532 ft 165 kts 309°
2026-05-06 17:44 50.05678 14.35133 2324 ft 164 kts 309°
2026-05-06 17:44 50.06370 14.33720 2114 ft 163 kts 308°
2026-05-06 17:45 50.07055 14.32306 1908 ft 162 kts 307°
2026-05-06 17:45 50.07724 14.30919 1708 ft 159 kts 307°
2026-05-06 17:45 50.08360 14.29560 1467 ft 149 kts 307°
2026-05-06 17:45 50.08975 14.28299 1266 ft 143 kts 308°
2026-05-06 17:46 50.09555 14.27119 1216 ft 123 kts 305°
2026-05-06 17:46 50.09964 14.26261 1202 ft 76 kts 307°
2026-05-06 17:46 50.10240 14.25723 1186 ft 42 kts 331°
2026-05-06 17:46 50.10442 14.25662 1178 ft 7 kts 11°
2026-05-06 17:47 50.10445 14.25663 1178 ft 0 kts 12°
2026-05-06 17:48 50.10466 14.25671 1177 ft 5 kts 12°
2026-05-06 17:49 50.10513 14.25695 1175 ft 7 kts 24°
2026-05-06 17:49 50.10529 14.25708 1175 ft 0 kts 28°
2026-05-06 17:51 50.10531 14.25709 1175 ft 1 kts 28°
2026-05-06 17:51 50.10578 14.25758 1174 ft 11 kts 33°
2026-05-06 17:51 50.10653 14.25835 1173 ft 13 kts 33°
2026-05-06 17:51 50.10740 14.25929 1169 ft 16 kts 36°
2026-05-06 17:52 50.10819 14.26017 1166 ft 8 kts 34°
2026-05-06 17:52 50.10867 14.26095 1165 ft 10 kts 84°
2026-05-06 17:52 50.10833 14.26199 1166 ft 10 kts 124°
2026-05-06 17:52 50.10800 14.26288 1169 ft 8 kts 116°
2026-05-06 17:53 50.10769 14.26329 1171 ft 4 kts 185°
2026-05-06 17:53 50.10739 14.26304 1172 ft 5 kts 213°
2026-05-06 17:53 50.10737 14.26301 1172 ft 0 kts 212°